Weather History for Kelso-Longview, WA

Change the Weather History Date:

Saturday, October 26, 2013

  Actual Average Record
Temperature  
Mean Temperature 52 °F -  
Max Temperature 55 °F 54 °F 69 °F (2003)
Min Temperature 48 °F 39 °F 32 °F (1996)
Degree Days  
Heating Degree Days 14    
Growing Degree Days 2 (Base 50)    
Moisture  
Dew Point 44 °F    
Average Humidity 73    
Maximum Humidity 87    
Minimum Humidity 63    
Precipitation  
Precipitation 0.00 in - - ()
Sea Level Pressure  
Sea Level Pressure 30.29 in    
Wind  
Wind Speed 9 mph (North)    
Max Wind Speed 13 mph    
Max Gust Speed 17 mph    
Visibility 10 miles    
Events      
Averages and records for this station are not official NWS values.
T = Trace of Precipitation, MM = Missing Value Source: NWS Daily Summary

Daily Weather History Graph

Daily Weather History Graph

Search for Another Location

Airport:

Trip Planner

Search our weather history database for the weather conditions in past years. The results will help you decide how hot, cold, wet, or windy it might be!

Date:

Astronomy

Oct. 26, 2013 Rise Set
Actual Time 7:44 AM PDT 6:05 PM PDT
Civil Twilight 7:13 AM PDT 6:36 PM PDT
Nautical Twilight 6:38 AM PDT 7:11 PM PDT
Astronomical Twilight 6:03 AM PDT 7:46 PM PDT
Moon No Moon Rise 2:05 PM PDT
Length of Visible Light 11h 23m
Length of Day
10h 21m
Waning Gibbous, 52% of the Moon is Illuminated
Oct 26
Waning Gibbous
Oct 26
Last Quarter
Nov 3
New
Nov 9
First Quarter
Nov 17
Full

Hourly Weather History & Observations

Time (PDT) Temp. Dew Point Humidity Pressure Visibility Wind Dir Wind Speed Gust Speed Precip Events Conditions
12:15 AM 48.2 °F 44.6 °F 87% 30.31 in 10.0 mi North - - N/A   Overcast
12:35 AM 51.8 °F 44.6 °F 76% 30.32 in 10.0 mi North - - N/A   Overcast
12:55 AM 51.8 °F 44.6 °F 76% 30.32 in 10.0 mi North - - N/A   Overcast
1:15 AM 51.8 °F 42.8 °F 71% 30.32 in 10.0 mi North - - N/A   Overcast
1:35 AM 51.8 °F 44.6 °F 76% 30.32 in 10.0 mi North - - N/A   Overcast
1:55 AM 51.8 °F 44.6 °F 76% 30.33 in 10.0 mi North - - N/A   Overcast
2:15 AM 51.8 °F 44.6 °F 76% 30.33 in 10.0 mi North - - N/A   Overcast
2:35 AM 51.8 °F 44.6 °F 76% 30.33 in 10.0 mi North - - N/A   Overcast
2:55 AM 51.8 °F 44.6 °F 76% 30.33 in 10.0 mi North - - N/A   Overcast
3:15 AM 50.0 °F 44.6 °F 82% 30.33 in 10.0 mi North - - N/A   Overcast
3:35 AM 50.0 °F 44.6 °F 82% 30.33 in 10.0 mi North - - N/A   Overcast
3:55 AM 50.0 °F 44.6 °F 82% 30.32 in 10.0 mi North - - N/A   Overcast
4:15 AM 50.0 °F 44.6 °F 82% 30.33 in 10.0 mi North - - N/A   Overcast
4:35 AM 50.0 °F 44.6 °F 82% 30.33 in 10.0 mi North - - N/A   Overcast
4:55 AM 50.0 °F 44.6 °F 82% 30.32 in 10.0 mi North - - N/A   Overcast
5:15 AM 50.0 °F 44.6 °F 82% 30.33 in 10.0 mi North - - N/A   Overcast
5:35 AM 51.8 °F 44.6 °F 76% 30.32 in 10.0 mi North - - N/A   Overcast
5:55 AM 51.8 °F 44.6 °F 76% 30.32 in 10.0 mi North - - N/A   Overcast
6:15 AM 51.8 °F 44.6 °F 76% 30.31 in 10.0 mi North - - N/A   Overcast
6:35 AM 50.0 °F 44.6 °F 82% 30.31 in 10.0 mi North - - N/A   Overcast
6:55 AM 51.8 °F 44.6 °F 76% 30.31 in 10.0 mi North - - N/A   Overcast
7:15 AM 50.0 °F 44.6 °F 82% 30.30 in 10.0 mi North - - N/A   Overcast
7:35 AM 51.8 °F 44.6 °F 76% 30.30 in 10.0 mi North - - N/A   Overcast
7:55 AM 50.0 °F 44.6 °F 82% 30.31 in 10.0 mi North - - N/A   Overcast
8:15 AM 50.0 °F 44.6 °F 82% 30.32 in 10.0 mi North - - N/A   Overcast
8:35 AM 50.0 °F 44.6 °F 82% 30.33 in 10.0 mi North - - N/A   Overcast
8:55 AM 50.0 °F 44.6 °F 82% 30.34 in 10.0 mi North - - N/A   Overcast
9:15 AM 50.0 °F 44.6 °F 82% 30.34 in 10.0 mi North - - N/A   Overcast
9:35 AM 51.8 °F 42.8 °F 71% 30.34 in 9.0 mi North - - N/A   Overcast
9:55 AM 51.8 °F 44.6 °F 76% 30.34 in 4.0 mi North - - N/A   Overcast
10:15 AM 51.8 °F 42.8 °F 71% 30.34 in 5.0 mi North - - N/A   Overcast
10:35 AM 51.8 °F 42.8 °F 71% 30.34 in 7.0 mi North 5.8 mph - N/A   Overcast
10:55 AM 51.8 °F 42.8 °F 71% 30.34 in 6.0 mi North - - N/A   Overcast
11:15 AM 51.8 °F 42.8 °F 71% 30.33 in 10.0 mi North - - N/A   Overcast
11:35 AM 51.8 °F 42.8 °F 71% 30.33 in 10.0 mi North - - N/A   Overcast
11:55 AM 51.8 °F 42.8 °F 71% 30.33 in 10.0 mi North - - N/A   Overcast
12:15 PM 53.6 °F 42.8 °F 67% 30.32 in 10.0 mi North - - N/A   Overcast
12:35 PM 53.6 °F 42.8 °F 67% 30.32 in 10.0 mi North - - N/A   Mostly Cloudy
12:55 PM 53.6 °F 42.8 °F 67% 30.31 in 10.0 mi North - - N/A   Mostly Cloudy
1:15 PM 55.4 °F 42.8 °F 63% 30.30 in 10.0 mi North - - N/A   Scattered Clouds
1:35 PM 55.4 °F 42.8 °F 63% 30.30 in 10.0 mi North - - N/A   Partly Cloudy
1:55 PM 55.4 °F 42.8 °F 63% 30.29 in 10.0 mi North - - N/A   Clear
2:15 PM 55.4 °F 42.8 °F 63% 30.29 in 10.0 mi North - - N/A   Clear
2:35 PM 55.4 °F 42.8 °F 63% 30.28 in 10.0 mi North 11.5 mph - N/A   Clear
2:55 PM 55.4 °F 42.8 °F 63% 30.27 in 10.0 mi North - - N/A   Clear
3:15 PM 55.4 °F 42.8 °F 63% 30.26 in 10.0 mi North - - N/A   Clear
3:35 PM 55.4 °F 42.8 °F 63% 30.26 in 10.0 mi North - - N/A   Clear
3:55 PM 55.4 °F 42.8 °F 63% 30.26 in 10.0 mi North - - N/A   Clear
4:15 PM 55.4 °F 42.8 °F 63% 30.26 in 10.0 mi North - - N/A   Clear
4:35 PM 55.4 °F 42.8 °F 63% 30.26 in 10.0 mi North - - N/A   Clear
4:55 PM 53.6 °F 42.8 °F 67% 30.26 in 10.0 mi North 12.7 mph 17.3 mph N/A   Clear
5:15 PM 53.6 °F 42.8 °F 67% 30.25 in 10.0 mi North - - N/A   Clear
5:35 PM 53.6 °F 42.8 °F 67% 30.25 in 10.0 mi North - - N/A   Clear
5:55 PM 51.8 °F 42.8 °F 71% 30.26 in 10.0 mi North - - N/A   Clear
6:15 PM 51.8 °F 42.8 °F 71% 30.25 in 10.0 mi North - - N/A   Clear
6:35 PM 51.8 °F 42.8 °F 71% 30.25 in 10.0 mi North - - N/A   Clear
6:55 PM 51.8 °F 42.8 °F 71% 30.26 in 10.0 mi North - - N/A   Mostly Cloudy
7:15 PM 51.8 °F 42.8 °F 71% 30.26 in 10.0 mi North - - N/A   Overcast
7:35 PM 51.8 °F 42.8 °F 71% 30.26 in 10.0 mi North - - N/A   Overcast
7:55 PM 51.8 °F 42.8 °F 71% 30.25 in 10.0 mi North - - N/A   Overcast
8:15 PM 51.8 °F 42.8 °F 71% 30.25 in 10.0 mi North - - N/A   Overcast
8:35 PM 50.0 °F 42.8 °F 76% 30.23 in 10.0 mi North - - N/A   Overcast
8:55 PM 50.0 °F 42.8 °F 76% 30.24 in 10.0 mi North - - N/A   Overcast
9:15 PM 50.0 °F 42.8 °F 76% 30.23 in 10.0 mi North - - N/A   Overcast
9:35 PM 50.0 °F 42.8 °F 76% 30.23 in 10.0 mi North - - N/A   Overcast
9:55 PM 50.0 °F 42.8 °F 76% 30.24 in 10.0 mi North - - N/A   Overcast
10:15 PM 50.0 °F 42.8 °F 76% 30.25 in 10.0 mi North - - N/A   Overcast
10:35 PM 50.0 °F 42.8 °F 76% 30.25 in 10.0 mi North - - N/A   Overcast
10:55 PM 50.0 °F 42.8 °F 76% 30.25 in 10.0 mi North - - N/A   Overcast
11:15 PM 50.0 °F 42.8 °F 76% 30.25 in 10.0 mi North - - N/A   Overcast
11:35 PM 50.0 °F 42.8 °F 76% 30.22 in 10.0 mi North - - N/A   Overcast
11:55 PM 50.0 °F 42.8 °F 76% 30.22 in 10.0 mi North - - N/A   Overcast